sat.trackr.live / text

‹ back to catalog

STARLINK-2705

NORAD 48672 · 2021-044AL

PAYLOAD ACTIVE UNKNOWN

§ Identity

Operator
Country
US
Launch date
2021-05-26
Launch site
AFETR
Launch vehicle
Mass (kg)
RCS (m²)

Purposes: comms

External: N2YO · Heavens-Above · Gunter

§ Orbital elements

Epoch: 2026-09-19T16:47:20.627520Z

Period
94.01 min
Inclination
53.1587°
Eccentricity
0.0000887
Mean motion
15.31697952 rev/d
Perigee alt
470.1 km
Apogee alt
471.4 km
Semi-major
6,848.9 km
B*
4.8399e-5
RAAN
281.4367°
Arg perigee
87.9474°
Mean anomaly
272.1629°
Rev number
29,368

§ Raw data

STARLINK-27051 48672U 21044AL  26262.69954430  .00001137  00000+0  48399-4 0  99942 48672  53.1587 281.4367 0000887  87.9474 272.1629 15.31697952293686

JSON: /api/v1/satellites/48672 · /tle

For live sub-satellite position, see the globe view (requires WebGL).

§ Visibility from observer

Set your observer location to see the next 7 days of passes ≥ 10°. The values pass through the URL so the page stays shareable.

No JS? Fill the form by hand. The geolocation button needs JavaScript.